STSAT-3

Last updated on Fri Oct 31 2025 00:03:36 GMT+0000 (Coordinated Universal Time)

1 39422U 13066G 25303.26450976 .00005401 00000+0 42795-3 0 9997 2 39422 97.5862 272.6123 0016216 87.8178 272.4903 15.00867432649694
UTC large
Height (km)
Speed (km/s)
/
Latitude / Longitude
Inclination (degrees)
Orbital Period (minutes)
Azimuth
Elevation
Range (km)
Doppler Factor

Next 0 passes for location: London (51.5072 / 0.1276)

Sorry there are no passes over London.